GW1482 Weather Reports


Display with metric or nautical units.
time (UTC)temp
F
wind
direction
speed
MPH
gust
MPH
rain 1hr
in
rain 24hr
in
rain mn
in
humidity
%
barometer
mb
20260906115853 62 34 0.0 0.0 0.00 0.00 0.00 99 1002.0
20260906115421 62 44 1.0 1.0 0.00 0.00 0.00 99 1001.6
20260906114947 62 42 1.0 1.0 0.00 0.00 0.00 99 1001.6
20260906114532 62 45 1.0 1.0 0.00 0.00 0.00 99 1002.0
20260906114117 62 42 1.0 1.0 0.00 0.00 0.00 99 1001.6
20260906113615 62 41 0.0 0.0 0.00 0.00 0.00 99 1002.0
20260906112655 62 60 1.0 1.0 0.00 0.00 0.00 99 1002.0
20260906111739 62 43 0.0 0.0 0.00 0.00 0.00 99 1001.6
20260906111323 62 38 0.0 0.0 0.00 0.00 0.00 99 1001.6
20260906110906 62 41 1.0 1.0 0.00 0.00 0.00 99 1001.6
20260906110435 62 29 0.0 0.0 0.00 0.00 0.00 99 1001.3
20260906110021 62 47 1.0 1.0 0.00 0.00 0.00 99 1001.6
20260906105120 62 37 0.0 0.0 0.00 0.00 0.00 99 1001.3
20260906104650 62 35 0.0 0.0 0.00 0.00 0.00 99 1001.3
20260906104232 62 29 0.0 0.0 0.00 0.00 0.00 99 1001.3
20260906103815 62 24 0.0 0.0 0.00 0.00 0.00 99 1001.3
20260906103359 62 30 0.0 0.0 0.00 0.00 0.00 99 1001.0
20260906102441 62 24 0.0 0.0 0.00 0.00 0.00 99 1001.0
20260906102010 62 30 0.0 0.0 0.00 0.00 0.00 99 1000.6
20260906101125 62 37 0.0 1.0 0.00 0.00 0.00 99 1001.0
20260906100223 62 24 0.0 0.0 0.00 0.00 0.00 99 1001.0
20260906095751 62 24 0.0 0.0 0.00 0.00 0.00 99 1001.0
20260906095321 62 24 0.0 0.0 0.00 0.00 0.00 99 1001.0
20260906094902 62 32 0.0 0.0 0.00 0.00 0.00 99 1001.0
20260906093946 62 24 0.0 0.0 0.00 0.00 0.00 99 1001.0
20260906093529 62 32 0.0 0.0 0.00 0.00 0.00 99 1001.0
20260906093114 62 33 0.0 0.0 0.00 0.00 0.00 99 1001.0
20260906092656 62 38 0.0 0.0 0.00 0.00 0.00 99 1001.0
20260906091340 63 24 0.0 0.0 0.00 0.00 0.00 99 1001.0
20260906090908 63 20 0.0 0.0 0.00 0.00 0.00 99 1001.0
20260906090002 63 40 0.0 0.0 0.00 0.00 0.00 99 1001.0
20260906085530 63 27 0.0 0.0 0.00 0.00 0.00 99 1000.6
20260906085113 63 40 1.0 1.0 0.00 0.00 0.00 99 1001.0
20260906084642 63 24 0.0 0.0 0.00 0.00 0.00 99 1001.0
20260906084212 63 33 0.0 0.0 0.00 0.00 0.00 99 1001.0
20260906083739 63 32 0.0 0.0 0.00 0.00 0.00 99 1001.0
20260906083323 63 38 0.0 1.0 0.00 0.00 0.00 99 1000.6
20260906082904 63 38 1.0 1.0 0.00 0.00 0.00 99 1001.3
20260906082433 63 33 0.0 0.0 0.00 0.00 0.00 99 1001.3
20260906082002 63 30 0.0 0.0 0.00 0.00 0.00 99 1001.0
20260906081515 63 28 0.0 0.0 0.00 0.00 0.00 99 1001.0
20260906081044 63 30 0.0 0.0 0.00 0.00 0.00 99 1001.0
20260906080614 63 30 0.0 0.0 0.00 0.00 0.00 99 1000.6
20260906080144 63 30 0.0 0.0 0.00 0.00 0.00 99 1001.0
20260906075726 63 29 0.0 0.0 0.00 0.00 0.00 99 1000.6
20260906074837 63 30 0.0 0.0 0.00 0.00 0.00 99 1000.6
20260906074422 63 30 0.0 0.0 0.00 0.00 0.00 99 1000.6
20260906074004 63 29 0.0 0.0 0.00 0.00 0.00 99 1001.0
20260906073533 63 29 0.0 1.0 0.00 0.00 0.00 99 1000.6
20260906073116 63 31 0.0 0.0 0.00 0.00 0.00 99 1000.6
20260906072227 63 34 0.0 0.0 0.00 0.00 0.00 99 1000.6
20260906071756 63 38 0.0 0.0 0.00 0.00 0.00 99 1001.0
20260906071340 63 28 0.0 0.0 0.00 0.00 0.00 99 1001.0
20260906070422 63 31 0.0 0.0 0.00 0.00 0.00 99 1001.0
20260906065518 63 34 0.0 0.0 0.00 0.00 0.00 99 1001.0
20260906064630 63 32 0.0 0.0 0.00 0.00 0.00 99 1001.0
20260906063725 64 37 0.0 0.0 0.00 0.00 0.00 99 1001.0
20260906063307 64 40 1.0 1.0 0.00 0.00 0.00 99 1001.0
20260906062851 64 24 0.0 0.0 0.00 0.00 0.00 99 1001.0
20260906062436 64 33 0.0 0.0 0.00 0.00 0.00 99 1001.0
20260906062002 64 36 0.0 1.0 0.00 0.00 0.00 99 1001.0
20260906061531 64 31 0.0 0.0 0.00 0.00 0.00 99 1001.0
20260906061114 64 49 1.0 1.0 0.00 0.00 0.00 99 1001.0
20260906060657 64 44 1.0 1.0 0.00 0.00 0.00 99 1001.0
20260906060242 64 53 1.0 1.0 0.00 0.00 0.00 99 1001.0
20260906055825 64 61 1.0 2.0 0.00 0.00 0.00 99 1001.0
20260906055410 64 42 1.0 1.0 0.00 0.00 0.00 99 1001.0
20260906054954 64 43 1.0 1.0 0.00 0.00 0.00 99 1001.0
20260906054053 64 39 1.0 1.0 0.00 0.00 0.00 99 1001.0
20260906053639 64 30 0.0 0.0 0.00 0.00 0.00 99 1001.0
20260906053208 64 28 0.0 0.0 0.00 0.00 0.00 99 1001.0
20260906052737 64 26 0.0 0.0 0.00 0.00 0.00 99 1000.6
20260906052306 65 40 0.0 0.0 0.00 0.00 0.00 99 1000.6
20260906051834 65 47 1.0 1.0 0.00 0.00 0.00 99 1000.6
20260906050918 65 48 1.0 1.0 0.00 0.00 0.00 99 1000.6
20260906050503 65 63 1.0 2.0 0.00 0.00 0.00 99 1000.6
20260906050033 65 44 0.0 1.0 0.00 0.00 0.00 99 1001.0
20260906045616 65 55 1.0 1.0 0.00 0.00 0.00 99 1000.6
20260906045159 65 34 0.0 0.0 0.00 0.00 0.00 99 1001.0
20260906044743 65 43 0.0 1.0 0.00 0.00 0.00 99 1001.3
20260906044312 66 45 1.0 1.0 0.00 0.00 0.00 99 1001.3
20260906043840 66 31 0.0 0.0 0.00 0.00 0.00 99 1001.3
20260906043410 66 29 0.0 0.0 0.00 0.00 0.00 99 1001.6
20260906042509 66 23 0.0 0.0 0.00 0.00 0.00 99 1001.0
20260906042054 66 17 0.0 0.0 0.00 0.00 0.00 99 1001.3
20260906041622 66 17 0.0 0.0 0.00 0.00 0.00 99 1001.6
20260906041136 66 24 0.0 0.0 0.00 0.00 0.00 99 1001.6
20260906040719 66 27 0.0 0.0 0.00 0.00 0.00 99 1001.3
20260906040302 66 34 0.0 0.0 0.00 0.00 0.00 99 1001.6
20260906035832 66 48 1.0 1.0 0.00 0.00 0.01 99 1001.3
20260906035415 66 36 0.0 0.0 0.00 0.00 0.01 99 1001.6
20260906034958 66 28 0.0 0.0 0.00 0.00 0.01 99 1001.6
20260906034545 66 29 0.0 0.0 0.00 0.00 0.01 99 1001.6
20260906033610 66 41 0.0 0.0 0.00 0.00 0.01 99 1001.6
20260906033156 66 33 0.0 0.0 0.00 0.00 0.01 99 1002.0
20260906032721 66 24 0.0 0.0 0.00 0.00 0.01 99 1002.0
20260906032250 66 18 0.0 0.0 0.00 0.00 0.01 99 1002.3
20260906031348 66 17 0.0 0.0 0.00 0.00 0.01 99 1002.0
20260906030444 66 38 0.0 0.0 0.00 0.00 0.01 99 1002.0
20260906030027 66 33 0.0 0.0 0.00 0.00 0.01 99 1002.0
20260906025556 66 34 0.0 0.0 0.00 0.00 0.01 99 1002.3
20260906025123 66 36 0.0 0.0 0.00 0.00 0.01 99 1002.0
20260906024650 65 11 1.0 1.0 0.00 0.00 0.00 99 1001.6
20260906024219 66 16 0.0 0.0 0.00 0.00 0.00 99 1001.6
20260906023746 66 26 0.0 0.0 0.00 0.00 0.00 99 1001.6
20260906022844 66 5 0.0 0.0 0.00 0.00 0.00 99 1002.0
20260906022412 66 23 0.0 0.0 0.00 0.00 0.00 99 1001.6
20260906021956 66 28 0.0 0.0 0.00 0.00 0.00 99 1001.6
20260906021526 66 49 1.0 1.0 0.00 0.00 0.00 99 1001.6
20260906021109 66 28 0.0 0.0 0.00 0.00 0.00 99 1001.6
20260906020621 66 9 0.0 1.0 0.00 0.00 0.00 99 1001.6
20260906020150 66 32 0.0 0.0 0.00 0.00 0.00 99 1001.3
20260906015301 66 14 0.0 0.0 0.00 0.00 0.00 99 1001.6
20260906014829 66 23 0.0 0.0 0.00 0.00 0.00 99 1001.6
20260906013941 66 29 0.0 0.0 0.00 0.00 0.00 99 1001.6
20260906013524 66 36 0.0 0.0 0.00 0.00 0.00 99 1001.6
20260906013051 66 36 0.0 0.0 0.00 0.00 0.00 99 1001.3
20260906011731 66 21 0.0 0.0 0.00 0.00 0.00 99 1001.3
20260906011245 66 17 0.0 0.0 0.00 0.00 0.00 99 1001.0
20260906010341 67 25 0.0 0.0 0.00 0.00 0.00 99 1001.0
20260906005924 67 31 0.0 0.0 0.00 0.00 0.00 99 1000.6
20260906005508 67 37 0.0 0.0 0.00 0.00 0.00 99 1001.0
20260906005036 67 37 0.0 1.0 0.00 0.00 0.00 99 1001.0
20260906004132 67 42 1.0 1.0 0.00 0.00 0.00 99 1001.0
20260906003714 68 42 1.0 1.0 0.00 0.00 0.00 99 1001.0
20260906003258 67 43 1.0 1.0 0.00 0.00 0.00 98 1001.0
20260906002811 67 18 0.0 0.0 0.00 0.00 0.00 98 1000.6
20260906002354 68 18 0.0 0.0 0.00 0.00 0.00 98 1001.0
20260906001937 68 18 1.0 1.0 0.00 0.00 0.00 98 1001.0
20260906001521 68 18 0.0 1.0 0.00 0.00 0.00 97 1000.6
20260906001049 68 16 0.0 0.0 0.00 0.00 0.00 97 1000.6
20260906000204 68 16 0.0 0.0 0.00 0.00 0.00 96 1001.0
20260905235744 68 316 0.0 1.0 0.00 0.00 0.00 95 1001.0
20260905235310 69 316 0.0 0.0 0.00 0.00 0.00 95 1001.0
20260905234839 69 316 0.0 1.0 0.00 0.00 0.00 95 1001.0
20260905234423 69 316 0.0 0.0 0.00 0.00 0.00 94 1000.6
20260905234008 69 316 0.0 0.0 0.00 0.00 0.00 95 1001.0
20260905233553 70 316 0.0 0.0 0.00 0.00 0.00 95 1001.0
20260905232654 70 316 0.0 0.0 0.00 0.00 0.00 94 1001.0
20260905232226 70 316 0.0 0.0 0.00 0.00 0.00 94 1001.0
20260905231756 70 316 0.0 0.0 0.00 0.00 0.00 93 1001.0
20260905230911 71 316 0.0 0.0 0.00 0.00 0.00 93 1001.3
20260905230441 71 316 0.0 0.0 0.00 0.00 0.00 93 1001.3
20260905230010 71 316 0.0 0.0 0.00 0.00 0.00 93 1001.0
20260905225055 72 316 0.0 0.0 0.00 0.00 0.00 93 1001.3
20260905224638 72 316 0.0 0.0 0.00 0.00 0.00 92 1001.0
20260905224220 72 316 0.0 0.0 0.00 0.00 0.00 91 1001.3
20260905223802 72 316 0.0 0.0 0.00 0.00 0.00 90 1001.0
20260905223333 72 316 0.0 0.0 0.00 0.00 0.00 89 1001.0
20260905222917 73 316 0.0 0.0 0.00 0.00 0.00 87 1001.0
20260905222503 74 316 0.0 0.0 0.00 0.00 0.00 86 1001.3
20260905222047 76 316 0.0 0.0 0.00 0.00 0.00 85 1001.0
20260905221632 76 316 0.0 0.0 0.00 0.00 0.00 82 1001.3
20260905220730 78 316 0.0 0.0 0.00 0.00 0.00 76 1001.0
20260905215838 80 316 0.0 0.0 0.00 0.00 0.00 76 1001.0
20260905214951 78 328 1.0 1.0 0.00 0.00 0.00 75 1001.0
20260905214521 78 342 0.0 0.0 0.00 0.00 0.00 79 1001.0
20260905214105 79 342 1.0 1.0 0.00 0.00 0.00 76 1000.6
20260905213636 81 323 0.0 1.0 0.00 0.00 0.00 74 1001.0
20260905212252 81 32 1.0 1.0 0.00 0.00 0.00 72 1000.6
20260905211407 79 301 1.0 1.0 0.00 0.00 0.00 72 1000.6
20260905210950 79 18 1.0 1.0 0.00 0.00 0.00 76 1000.6
20260905210536 80 18 0.0 1.0 0.00 0.00 0.00 76 1000.3
20260905210105 81 7 1.0 1.0 0.00 0.00 0.00 71 1000.3
20260905205617 82 294 1.0 1.0 0.00 0.00 0.00 70 1000.3
20260905204719 80 333 0.0 0.0 0.00 0.00 0.00 74 1000.3
20260905204301 80 333 1.0 1.0 0.00 0.00 0.00 70 1000.3
20260905203845 80 322 1.0 1.0 0.00 0.00 0.00 69 1000.3
20260905203430 80 313 2.0 2.0 0.00 0.00 0.00 72 1000.3
20260905203015 80 311 1.0 1.0 0.00 0.00 0.00 71 1000.3
20260905202601 79 326 1.0 2.0 0.00 0.00 0.00 71 1000.3
20260905202146 79 304 2.0 2.0 0.00 0.00 0.00 75 1000.6
20260905201732 79 300 1.0 1.0 0.00 0.00 0.00 74 1000.6
20260905201316 80 322 1.0 1.0 0.00 0.00 0.00 76 1000.6
20260905200846 82 225 2.0 2.0 0.00 0.00 0.00 71 1000.6
20260905200401 82 310 1.0 1.0 0.00 0.00 0.00 70 1000.6
20260905195946 81 348 0.0 1.0 0.00 0.00 0.00 72 1000.6
20260905195516 81 348 1.0 1.0 0.00 0.00 0.00 70 1000.6
20260905195100 81 346 0.0 0.0 0.00 0.00 0.00 71 1000.6
20260905194155 81 5 0.0 1.0 0.00 0.00 0.00 74 1001.0
20260905193708 80 332 2.0 2.0 0.00 0.00 0.00 73 1000.6
20260905193252 80 38 0.0 0.0 0.00 0.00 0.00 72 1001.0
20260905191933 79 19 0.0 0.0 0.00 0.00 0.00 76 1001.0
20260905191049 79 352 1.0 1.0 0.00 0.00 0.00 74 1001.3
20260905190617 79 342 1.0 1.0 0.00 0.00 0.00 73 1001.3
20260905185730 78 341 1.0 1.0 0.00 0.00 0.00 74 1001.3
20260905185314 77 349 1.0 1.0 0.00 0.00 0.00 78 1001.6
20260905184843 77 316 3.0 4.0 0.00 0.00 0.00 76 1001.3
20260905184429 78 354 1.0 1.0 0.00 0.00 0.00 76 1001.6
20260905183958 77 6 0.0 1.0 0.00 0.00 0.00 77 1001.3
20260905183527 77 358 1.0 1.0 0.00 0.00 0.00 80 1001.6
20260905183110 77 0 0.0 1.0 0.00 0.00 0.00 78 1001.6
20260905182652 77 4 1.0 1.0 0.00 0.00 0.00 79 1001.6
20260905182223 76 8 1.0 1.0 0.00 0.00 0.00 80 1002.0
20260905181805 76 11 0.0 0.0 0.00 0.00 0.00 80 1001.6
20260905180914 74 48 2.0 2.0 0.00 0.00 0.00 85 1002.0
20260905180012 75 204 2.0 3.0 0.00 0.00 0.00 81 1002.3
20260905175557 76 309 1.0 1.0 0.00 0.00 0.00 84 1002.3
20260905175143 75 14 0.0 1.0 0.00 0.00 0.00 83 1002.3
20260905174726 75 358 1.0 2.0 0.00 0.00 0.00 84 1002.3
20260905174257 73 3 1.0 1.0 0.00 0.00 0.00 93 1002.3
20260905173842 72 30 0.0 1.0 0.00 0.00 0.00 92 1002.3
20260905172955 72 28 0.0 1.0 0.00 0.00 0.00 94 1002.3
20260905172539 71 38 1.0 1.0 0.00 0.00 0.00 94 1002.7
20260905172109 71 33 1.0 1.0 0.00 0.00 0.00 96 1002.7
20260905171651 71 38 0.0 1.0 0.00 0.00 0.00 97 1002.7
20260905171238 70 60 1.0 2.0 0.00 0.00 0.00 99 1002.3
20260905170805 70 318 1.0 2.0 0.00 0.00 0.00 99 1002.7
20260905170335 71 14 0.0 1.0 0.00 0.00 0.00 99 1002.7
20260905165918 70 45 0.0 1.0 0.00 0.00 0.00 99 1002.7
20260905165501 70 243 0.0 0.0 0.00 0.00 0.00 99 1002.3
20260905165045 70 240 2.0 2.0 0.00 0.00 0.00 99 1002.7
20260905164629 70 43 1.0 1.0 0.00 0.00 0.00 99 1002.7
20260905164214 70 51 1.0 2.0 0.00 0.00 0.00 99 1002.7
20260905163742 69 6 0.0 0.0 0.00 0.00 0.00 99 1003.0
20260905163312 68 6 1.0 1.0 0.00 0.00 0.00 99 1002.7
20260905162840 70 26 1.0 1.0 0.00 0.00 0.00 99 1003.0
20260905161951 70 309 0.0 0.0 0.00 0.00 0.00 99 1002.3
20260905161536 70 309 0.0 0.0 0.00 0.00 0.00 99 1002.3
20260905160649 70 309 0.0 0.0 0.00 0.00 0.00 99 1002.3
20260905155332 69 309 2.0 3.0 0.00 0.00 0.00 99 1002.0
20260905154847 68 344 1.0 2.0 0.00 0.00 0.00 99 1002.0
20260905154417 68 22 0.0 0.0 0.00 0.00 0.00 99 1002.0
20260905153527 67 21 0.0 0.0 0.00 0.00 0.00 99 1001.6
20260905153111 67 20 0.0 0.0 0.00 0.00 0.00 99 1001.6
20260905152653 67 17 0.0 0.0 0.00 0.00 0.00 99 1001.6
20260905152236 66 16 0.0 0.0 0.00 0.00 0.00 99 1001.6
20260905151347 66 347 1.0 2.0 0.00 0.00 0.00 99 1001.3
20260905150931 66 20 0.0 0.0 0.00 0.00 0.00 99 1001.3
20260905150513 65 16 0.0 0.0 0.00 0.00 0.00 99 1001.6
20260905150057 65 335 2.0 3.0 0.00 0.00 0.00 99 1001.6
20260905145641 65 20 0.0 0.0 0.00 0.00 0.00 99 1002.0
20260905145225 65 23 1.0 1.0 0.00 0.00 0.00 99 1002.3
20260905144808 65 43 0.0 1.0 0.00 0.00 0.00 99 1002.7
20260905144352 65 30 0.0 0.0 0.00 0.00 0.00 99 1003.0
20260905143935 65 20 0.0 0.0 0.00 0.00 0.00 99 1003.0
20260905143504 65 37 0.0 1.0 0.00 0.00 0.00 99 1003.0
20260905143032 64 43 0.0 1.0 0.00 0.00 0.00 99 1003.3
20260905142615 64 33 0.0 0.0 0.00 0.00 0.00 99 1003.3
20260905142159 64 32 0.0 0.0 0.00 0.00 0.00 99 1003.3
20260905141740 64 34 0.0 0.0 0.00 0.00 0.00 99 1003.3
20260905141325 64 22 0.0 0.0 0.00 0.00 0.00 99 1003.3
20260905140838 64 40 0.0 0.0 0.00 0.00 0.00 99 1003.0
20260905140422 64 24 0.0 0.0 0.00 0.00 0.00 99 1003.3
20260905140005 64 21 0.0 0.0 0.00 0.00 0.00 99 1003.3
20260905135547 64 35 0.0 1.0 0.00 0.00 0.00 99 1003.3
20260905135130 64 38 0.0 1.0 0.00 0.00 0.00 99 1003.3
20260905134658 64 20 0.0 0.0 0.00 0.00 0.00 99 1003.3
20260905134242 64 29 0.0 0.0 0.00 0.00 0.00 99 1003.3
20260905132919 64 30 0.0 0.0 0.00 0.00 0.00 99 1003.7
20260905132448 64 37 0.0 0.0 0.00 0.00 0.00 99 1004.0
20260905132017 64 38 0.0 0.0 0.00 0.00 0.00 99 1004.0
20260905131546 64 29 0.0 0.0 0.00 0.00 0.00 99 1004.4
20260905131129 64 41 0.0 1.0 0.00 0.00 0.00 99 1004.4
20260905130713 64 45 0.0 1.0 0.00 0.00 0.00 99 1004.0
20260905125822 65 7 1.0 1.0 0.00 0.00 0.00 99 1004.4
20260905125404 65 27 0.0 1.0 0.00 0.00 0.00 99 1004.4
20260905124933 65 6 0.0 1.0 0.00 0.00 0.00 99 1004.4
20260905124501 65 128 1.0 1.0 0.00 0.00 0.00 99 1004.4
20260905124046 65 347 1.0 1.0 0.00 0.00 0.00 99 1003.7
20260905123616 65 71 2.0 2.0 0.00 0.00 0.00 99 1003.7
20260905123200 65 320 5.0 6.0 0.00 0.00 0.00 99 1003.3
20260905122743 65 25 0.0 0.0 0.00 0.00 0.00 99 1002.3
20260905121838 66 40 0.0 0.0 0.00 0.00 0.00 99 1001.6